Regional Weather Roundup
Issued by NWS

Home | Current Version | Previous Version | Text Only | Print | Product List | Glossary Off
Versions: 1 2 3 4 5 6 7 8 9 10 11 12 13 14 15 16 17 18 19 20 21 22 23 24 25 26 27 28 29 30 31 32 33 34 35 36 37 38 39 40 41 42 43 44 45 46 47 48 49 50

000
ASUS43 KOAX 310710
RWRNE

WEATHER ROUNDUP FOR NEBRASKA
NATIONAL WEATHER SERVICE OMAHA NE
200 AM CDT MON AUG 31 2015

NOTES: SATELLITE DATA IS BEING USED TO AUGMENT CLOUD COVER ABOVE
       12000 FEET.
       "FAIR" INDICATES FEW OR NO CLOUDS BELOW 12,000 FEET WITH NO
       SIGNIFICANT WEATHER AND/OR OBSTRUCTIONS TO VISIBILITY.

  * THESE STATIONS DO NOT REPORT WEATHER SUCH AS RAIN...SNOW OR FOG.

NEZ001>004-019>022-054>056-310800-
NEBRASKA PANHANDLE

CITY           SKY/WX    TMP DP  RH WIND       PRES   REMARKS
SCOTTSBLUFF    MOCLDY    72  50  45 CALM      29.91F
ALLIANCE       MOCLDY    71  50  47 S8        29.91R
CHADRON        MOCLDY    69  49  48 CALM      29.81R
KIMBALL        MOCLDY    68  46  44 SW5       29.97S
SIDNEY         PTCLDY    64  48  56 S6        29.98R
$$

NEZ057>060-069>072-079>082-310800-
SOUTHWEST NEBRASKA

CITY           SKY/WX    TMP DP  RH WIND       PRES   REMARKS
NORTH PLATTE   CLEAR     67  56  67 SE9       29.93S
IMPERIAL       CLEAR     70  45  40 S16       29.93S
LEXINGTON      CLEAR     67  64  88 S14       29.95R
MCCOOK         CLEAR     67  54  63 MISG      29.94S
OGALLALA       CLEAR     67  43  41 S6        29.93S
$$

NEZ005>010-023>029-035>040-094-310800-
NORTH CENTRAL NEBRASKA

CITY           SKY/WX    TMP DP  RH WIND       PRES   REMARKS
VALENTINE      CLEAR     71  57  61 S14       29.84S
AINSWORTH      CLEAR     68  59  72 S17       29.87S
BROKEN BOW     CLEAR     66  62  87 S10       29.94S
O`NEILL        CLEAR     67  65  93 S14G20    29.91R
ORD            CLEAR     66  63  90 S9        29.92S
THEDFORD       CLEAR     69  58  68 S13       29.93R
$$

NEZ041-046>049-061>064-073>077-083>087-310800-
SOUTH CENTRAL NEBRASKA

CITY           SKY/WX    TMP DP  RH WIND       PRES   REMARKS
GRAND ISLAND   CLEAR     66  64  93 S13       29.96S
AURORA         CLEAR     66  66 100 S7        29.96S
HASTINGS       CLEAR     65  63  93 S7        29.96F
HEBRON         CLEAR     65  63  93 S3        29.96S FOG
HOLDREGE       CLEAR     64  62  93 SE9       29.96F
KEARNEY *      CLEAR     64  61  88 S9        29.95F
YORK           CLOUDY    64  63  94 S6        29.96F
$$

NEZ011>018-030>034-042>045-310800-
NORTHEAST NEBRASKA

CITY           SKY/WX    TMP DP  RH WIND       PRES   REMARKS
NORFOLK        PTCLDY    68  64  87 S13       29.93S
ALBION         PTCLDY    65  62  90 SE7       29.95S
BLAIR          CLEAR     67  64  93 SE6       29.96F FOG
COLUMBUS *     PTCLDY   N/A N/A N/A SE5       29.95F
FREMONT        PTCLDY    67  65  92 SE3       29.96F
TEKAMAH        FOG       61  61 100 SW3       29.95F VSB 1/4
WAYNE          PTCLDY    65  64  95 S9        29.94F
$$

NEZ050>053-065>068-078-088>093-310800-
SOUTHEAST NEBRASKA

CITY           SKY/WX    TMP DP  RH WIND       PRES   REMARKS
LINCOLN        CLEAR     66  64  93 S5        29.96F FOG
OMAHA EPPLEY   PTCLDY    66  65  96 SE6       29.96F
BEATRICE       CLEAR     66  65  97 SE3       29.96F
FALLS CITY     PTCLDY    68  67  96 CALM      29.95S FOG
NEBRASKA CITY  CLEAR     68  68  98 SE5       29.97S
PLATTSMOUTH    CLEAR     66  65  94 SE3       29.97S FOG
$$

NEZ044-045-051>053-067-310800-
OMAHA AREA

CITY           SKY/WX    TMP DP  RH WIND       PRES   REMARKS
OMAHA EPPLEY   PTCLDY    66  65  96 SE6       29.96F
BLAIR          CLEAR     67  64  93 SE6       29.96F FOG
FREMONT        PTCLDY    67  65  92 SE3       29.96F
MILLARD        CLEAR     67  65  96 CALM      29.95F FOG
OFFUTT AFB     CLEAR     63  63 100 E3        29.95F
PLATTSMOUTH    CLEAR     66  65  94 SE3       29.97S FOG
WAHOO          FAIR      64  63  96 S3        29.96F FOG
$$



USA.gov is the U.S. government's official web portal to all federal, state and local government web resources and services.